Zurück zum Katalog

SJ-5

AktivWissenschaftSSO
NORAD 25731·PAYLOAD·🇨🇳 China

Gestartet May 10, 1999 von Taiyuan Satellite Launch Center

Loading…

Nächste Überflüge (nächste 24 Stunden)

TLE

AktuellSource: Space-Track

Epoche: Sep 14, 2026, 09:51 UTC

1 25731U 99025B   26257.41049453  .00000018  00000-0  32495-4 0  9991
2 25731  98.7187 297.5460 0018041 101.0516 259.2687 14.12942402407921

Verfolge SJ-5 in Echtzeit mit AllMySat

Download on the App Store